Vorticity
nan nan nan nan nan nan nan nan nan nan nan nan nan nan nan nan nan nan nan nan nan nan nan nan nan nan nan
nan 12 9 11 11 8 9 10 12 15 9 7 8 7 9 10 10 9 9 9 9 9 8 8 8 9 nan
nan 10 11 10 11 10 10 11 12 16 15 11 10 10 11 10 10 10 9 10 9 9 9 8 8 10 nan
nan 9 10 10 10 9 10 10 10 16 18 19 17 17 18 12 11 11 10 10 10 9 9 8 8 10 nan
nan 7 6 9 9 9 10 9 11 13 14 13 15 16 19 19 13 13 14 10 11 10 9 9 9 10 nan
nan 8 9 11 10 8 8 8 12 11 11 9 14 11 12 19 15 12 9 10 10 11 10 10 10 10 nan
nan 8 9 8 7 10 11 9 9 9 9 9 12 10 10 14 13 11 10 10 11 13 14 12 11 10 nan
nan 2 4 3 6 10 9 11 12 12 9 12 8 11 10 16 22 11 11 10 12 12 13 12 12 9 nan
nan 10 8 10 9 12 12 12 10 11 14 14 10 13 12 13 23 22 14 9 11 11 10 10 11 11 nan
nan 15 16 15 18 16 11 10 11 11 11 11 12 11 12 15 14 18 23 23 17 15 10 10 5 7 nan
nan 12 14 14 18 14 11 9 10 9 9 9 12 13 11 8 13 17 15 19 19 25 23 15 9 1 nan
nan 9 10 11 11 11 11 10 9 7 12 10 10 11 10 9 10 13 15 16 13 12 18 21 19 15 nan
nan 11 12 11 9 11 12 12 11 14 14 12 10 12 13 10 10 10 11 12 11 9 9 13 14 14 nan
nan 11 10 11 11 11 11 13 12 13 16 18 15 15 14 14 10 10 9 11 11 10 10 7 10 10 nan
nan 10 11 11 11 10 11 11 10 10 14 20 18 15 13 13 11 11 9 9 12 12 10 8 9 12 nan
nan 11 11 10 10 10 12 11 11 12 14 15 13 13 11 11 14 10 11 10 11 11 10 10 9 11 nan
nan nan nan nan nan nan nan nan nan nan nan nan nan nan nan nan nan nan nan nan nan nan nan nan nan nan nan
CAPE
0 0 0 0 0 0 0 0 0 0 0 0 0 0 0 0 0 0 0 0 2 8 11 11 10 15 12
0 0 0 0 0 0 0 0 0 0 0 0 0 0 0 0 1 1 0 0 1 7 11 10 9 9 10
0 0 0 0 0 0 0 0 0 0 0 0 0 0 0 0 1 2 4 1 2 4 6 9 7 8 12
0 0 0 0 0 0 0 0 0 0 0 0 0 0 0 1 1 0 2 5 3 6 9 10 6 8 10
0 0 0 0 0 0 1 0 0 0 0 0 0 0 0 0 0 0 0 6 10 7 10 13 11 12 10
5 4 1 6 7 2 3 4 3 3 0 0 0 0 0 0 0 0 0 0 4 9 16 16 17 15 14
2 0 1 1 4 1 1 0 3 0 1 0 0 0 0 0 0 0 0 0 0 4 13 15 20 10 10
0 0 0 0 0 10 26 23 21 7 10 23 7 0 0 0 0 0 0 6 1 2 8 16 33 17 9
10 14 19 14 15 31 16 7 8 2 2 4 1 3 0 0 0 0 0 9 40 9 11 15 20 18 11
6 10 4 0 1 7 16 11 15 10 0 1 0 0 0 0 0 0 0 10 56 37 16 13 23 5 0
13 3 0 0 0 0 5 13 19 20 0 26 0 0 0 0 0 0 0 0 1 1 23 22 28 12 0
4 0 0 0 0 0 1 2 3 13 5 19 6 0 0 0 0 0 0 0 0 0 0 0 8 10 14
6 1 0 0 0 3 5 1 1 6 4 1 10 0 0 0 0 0 0 0 0 0 0 0 0 0 0
0 0 0 0 0 0 1 4 7 0 0 0 0 0 0 0 0 0 0 0 0 0 0 0 0 0 0
0 0 1 0 1 0 0 4 3 1 1 0 0 0 0 0 0 0 0 0 0 0 0 0 0 0 0
0 1 0 0 0 0 1 6 3 3 4 0 0 0 0 0 3 0 0 0 0 0 0 0 0 0 0
0 0 0 2 4 0 1 1 1 2 0 0 0 0 0 0 0 3 0 0 0 0 0 0 0 0 0